Theta_e
307 307 308 307 307 307 307 307 307 308 308 309 309 310 309 309 309 308 309 310 310 310 309 309 309 309 310 310 310 310 311 313 314 314 314 314 314 315 315 314 314 315 315 314 315 315 314 314 314 314 313 313 314 312 310 311 311 310 309 310 311 310 310 309 309 308 307 306 305 305 305 305 305 305 305 304 304 303 303 303 303 304 304 304 304 303 303
307 307 307 307 306 306 306 306 306 307 307 308 308 308 308 309 308 308 309 311 311 310 309 309 309 309 310 310 310 310 310 311 312 313 314 314 314 314 314 314 314 315 315 314 314 314 314 315 314 313 312 312 312 312 311 312 312 310 309 309 310 309 309 309 309 308 307 307 306 306 306 305 305 305 304 303 303 303 303 303 303 303 303 303 303 303 303
306 306 306 306 305 305 305 305 305 306 306 307 307 307 308 308 308 308 310 311 311 309 308 309 309 309 310 310 311 310 310 310 311 312 313 314 314 313 313 313 314 315 315 314 314 314 315 316 314 312 311 311 311 312 312 312 312 310 310 309 308 308 308 309 309 308 307 306 306 306 306 305 304 304 303 303 303 303 303 302 302 303 302 303 302 303 303
305 305 305 305 305 305 305 306 306 306 307 307 307 308 308 309 309 310 310 309 308 308 308 309 310 310 310 310 310 310 310 311 311 312 312 313 314 314 313 313 313 314 315 313 314 315 315 314 313 312 311 310 311 311 312 311 311 310 309 309 308 308 308 308 308 307 306 306 306 306 305 305 304 303 303 302 302 302 302 302 301 301 301 301 301 302 302
304 304 304 304 305 304 304 306 306 306 307 307 307 308 308 308 309 309 308 307 307 308 309 309 309 309 309 310 310 310 311 312 312 311 311 312 313 313 313 313 313 314 314 314 314 315 314 313 312 312 311 310 310 311 311 310 310 309 308 308 308 308 308 308 307 307 306 306 305 305 304 304 303 303 302 302 301 301 301 301 300 300 300 300 300 300 300
304 304 305 305 305 304 304 305 306 306 306 306 307 307 308 309 309 308 308 308 308 308 308 308 308 309 309 310 310 310 311 312 312 313 313 314 315 314 313 313 313 313 314 314 314 313 313 312 312 311 311 310 310 310 310 310 309 308 308 308 308 308 308 307 307 306 305 305 305 304 304 303 302 302 301 301 301 301 300 300 300 300 300 299 299 299 299
304 304 304 304 304 304 305 306 307 306 306 306 307 307 308 308 309 309 308 308 308 309 309 309 309 309 310 310 310 311 311 311 312 313 313 314 315 315 314 313 313 314 314 313 313 313 313 312 312 310 310 310 310 310 310 309 308 307 308 308 308 308 307 306 306 305 305 305 304 304 303 302 302 302 301 301 301 300 300 299 299 299 299 299 299 298 298
304 304 303 304 304 305 306 306 306 305 306 307 307 308 307 307 307 308 308 307 308 309 310 310 310 310 310 310 310 310 310 311 312 312 312 313 314 313 313 313 313 313 314 313 313 313 313 313 312 311 310 310 310 310 309 308 307 307 307 307 308 307 307 306 305 305 305 304 304 303 303 302 302 301 301 301 300 300 299 299 299 299 299 299 298 298 298
304 303 303 304 304 304 305 305 306 307 308 308 308 307 307 307 307 307 307 308 309 310 311 311 310 310 310 310 310 310 310 310 311 311 312 313 312 312 313 313 314 314 314 314 315 314 313 313 312 311 310 310 310 310 309 308 307 307 307 307 307 307 306 305 305 304 304 304 303 303 302 302 301 301 301 300 299 299 299 299 299 299 298 298 298 298 298
303 303 303 304 304 304 304 306 308 309 309 309 309 307 306 307 307 308 309 308 308 309 310 310 309 309 309 309 310 310 310 310 311 311 312 312 311 312 313 314 314 314 314 314 314 313 313 312 311 311 310 310 310 309 308 307 307 307 307 307 306 305 305 304 304 304 303 303 303 302 302 301 301 301 300 300 299 299 299 299 298 298 298 298 298 297 297
303 304 303 304 304 304 304 306 308 309 308 308 308 306 305 306 309 309 308 308 308 309 310 309 309 308 308 309 310 311 311 310 310 310 311 312 311 312 314 314 313 314 314 313 312 312 311 311 310 309 309 309 309 308 307 307 307 307 307 306 305 304 303 303 302 303 303 303 302 302 301 301 301 300 300 299 299 298 298 298 298 297 297 297 297 297 296
303 304 303 304 303 303 304 305 307 307 307 307 306 305 304 305 307 308 308 307 308 309 309 309 308 308 308 309 309 310 310 310 310 311 311 312 312 313 313 313 312 312 313 312 310 310 310 310 310 309 309 309 308 307 307 307 307 307 306 305 304 302 302 302 302 302 303 302 302 301 301 301 300 300 299 298 298 298 298 297 297 297 297 296 296 296 296
303 303 304 304 303 303 305 306 306 306 306 305 305 305 305 305 307 307 308 308 308 308 308 309 308 308 308 309 309 310 311 310 310 311 310 310 311 312 312 312 311 311 311 310 310 310 310 309 309 309 309 308 307 307 307 307 306 306 305 304 302 301 301 301 302 302 302 302 301 301 301 300 299 299 298 298 298 298 297 297 296 296 296 296 295 295 295
302 303 303 303 303 304 306 306 305 306 305 304 305 305 305 306 306 307 308 308 308 307 307 307 307 307 307 308 308 310 311 310 310 310 310 309 310 310 310 310 309 309 310 309 309 310 309 309 309 309 308 308 307 307 307 306 306 305 304 302 301 301 301 301 301 302 301 301 301 301 300 299 299 298 298 298 297 297 296 296 296 295 295 295 295 294 294
301 301 302 302 302 303 305 304 304 304 304 304 304 305 305 306 306 306 306 307 308 307 307 307 307 307 307 308 308 309 309 309 310 310 310 309 308 308 309 309 308 308 309 309 309 309 308 308 308 308 308 307 307 306 306 306 305 304 302 301 301 301 301 301 301 301 301 301 301 300 300 299 299 298 298 297 297 297 296 296 295 294 294 294 294 294 293
300 300 301 301 302 303 304 303 302 304 304 304 305 306 306 306 306 305 305 306 307 307 306 306 307 307 307 307 308 307 307 308 309 309 308 307 307 308 308 308 308 307 308 308 309 309 308 307 308 308 307 307 307 306 306 305 304 302 301 301 301 301 301 301 301 301 301 300 300 300 299 299 298 298 298 297 297 296 296 295 294 294 294 293 293 293 293
301 301 302 302 302 302 302 302 302 303 304 304 305 305 306 306 306 306 305 305 306 307 307 306 306 306 307 307 308 307 306 307 307 307 307 307 307 307 308 308 307 307 307 308 309 309 308 306 307 307 307 306 306 306 305 305 303 302 302 301 301 301 301 300 300 300 300 299 299 299 298 298 298 297 297 297 296 296 295 295 294 294 293 293 292 292 292
302 302 302 303 302 302 302 303 303 303 304 304 305 305 305 305 306 306 306 305 306 307 307 306 306 306 306 307 307 306 306 306 306 306 306 307 307 307 307 308 307 307 307 308 308 309 308 306 306 307 306 306 306 305 305 304 302 302 302 301 301 300 300 300 300 299 299 299 298 298 298 298 298 297 297 297 296 295 295 294 294 294 293 292 292 292 292
301 302 302 302 302 302 302 302 302 304 304 305 305 305 304 304 305 305 306 306 306 306 306 306 306 306 306 306 306 306 305 305 306 306 307 307 307 307 308 307 307 307 308 308 308 308 308 306 306 306 306 305 305 305 304 303 302 302 301 301 301 300 300 300 299 299 298 297 297 297 297 298 297 297 297 296 295 295 294 294 293 293 293 292 292 291 291
301 301 302 302 302 302 301 301 303 304 304 305 305 304 304 304 304 305 305 305 305 304 304 304 305 305 306 306 306 305 304 305 306 307 307 307 307 307 307 307 307 307 307 307 307 308 308 307 305 305 305 305 305 304 303 302 302 302 301 300 300 300 300 299 299 298 298 298 297 297 297 297 297 297 296 296 295 295 294 294 293 292 292 292 292 291 291
300 300 301 301 301 301 301 301 303 304 304 304 304 303 303 304 305 305 305 304 304 304 303 303 304 304 305 305 305 304 305 306 306 306 306 306 307 307 307 307 307 307 307 307 307 307 308 307 305 305 305 304 304 304 303 302 302 301 300 300 301 300 300 299 299 298 298 298 298 298 297 297 297 297 296 296 295 295 294 294 293 292 292 292 292 291 292
300 300 301 301 301 301 301 301 302 303 304 305 305 304 303 303 304 305 304 304 304 303 302 302 303 303 303 304 304 305 305 306 306 306 306 306 306 306 307 307 306 306 306 307 307 307 308 307 305 305 304 304 304 304 303 302 302 301 301 301 301 300 300 300 299 298 299 299 299 298 298 297 296 296 296 295 295 294 294 294 293 292 292 292 292 292 292
300 301 301 301 301 301 301 302 302 303 303 304 305 305 304 303 304 304 304 303 303 303 302 301 302 302 303 304 304 305 305 305 305 305 305 306 306 306 306 306 306 306 307 307 307 307 307 307 306 304 304 304 304 303 302 302 302 301 301 301 301 301 301 300 299 299 299 299 299 298 298 297 296 296 296 296 295 294 294 294 293 293 292 292 292 292 292
301 301 301 301 301 301 302 303 303 302 303 304 304 304 303 304 304 303 303 303 302 302 302 302 302 302 303 303 304 304 305 305 305 305 305 305 306 305 305 305 306 306 306 306 307 307 307 306 306 304 304 304 303 303 302 302 302 302 302 302 301 301 301 300 300 299 299 299 299 298 298 297 296 296 296 296 295 294 294 293 293 293 292 292 292 292 292
301 301 300 300 300 301 302 303 302 302 303 304 303 303 303 303 303 302 302 302 302 302 302 302 302 303 303 303 304 304 304 304 304 304 305 305 305 305 305 305 306 306 306 305 306 306 306 305 305 303 303 303 302 302 302 302 302 302 302 302 301 301 301 300 300 300 299 299 299 298 298 297 296 296 295 295 295 294 294 293 293 293 292 291 292 292 292
299 300 300 299 300 302 302 302 302 303 304 303 302 302 303 303 303 302 302 302 302 302 302 302 302 303 302 303 304 304 304 304 304 304 305 305 305 305 305 305 305 305 305 305 305 305 305 304 303 303 303 303 302 302 302 302 302 302 301 301 301 300 300 300 300 300 300 299 299 298 297 297 296 296 295 295 295 294 293 292 292 293 292 292 292 292 292
300 300 300 301 301 302 302 302 303 303 303 303 302 302 303 303 303 303 303 303 302 302 302 302 302 302 302 303 303 303 303 304 304 305 305 305 305 305 305 305 305 304 304 304 304 304 304 304 303 303 303 303 302 302 302 302 302 301 301 301 300 300 300 300 300 300 300 299 299 298 297 296 296 296 296 295 295 295 294 292 292 292 292 292 292 292 291
300 300 300 301 302 302 302 303 303 303 303 303 303 302 303 304 303 303 303 304 303 302 302 302 302 302 302 303 303 303 304 304 304 305 305 305 305 305 305 304 304 304 304 304 304 303 303 304 304 304 303 303 303 302 302 302 302 301 301 301 300 300 300 300 300 300 300 300 299 298 297 296 297 296 296 295 294 295 294 292 291 292 292 292 292 292 292
301 301 301 301 301 301 301 302 303 302 302 303 303 303 303 304 304 303 304 304 304 302 302 301 302 302 303 303 303 303 304 304 304 304 304 305 305 305 304 304 304 304 304 304 304 304 303 304 304 303 303 303 303 303 302 302 302 301 301 300 300 300 300 300 300 300 300 300 299 298 297 296 297 297 296 295 294 295 295 293 291 291 292 292 291 291 292
301 302 301 301 301 301 301 302 302 302 302 302 302 303 303 303 304 304 304 304 303 302 302 302 302 302 303 303 303 303 304 304 304 304 304 304 304 304 304 304 304 303 303 303 304 304 304 304 303 303 303 303 303 302 302 301 302 301 301 300 300 300 300 300 299 299 299 299 299 298 297 297 297 297 296 295 294 295 295 294 292 291 292 292 291 290 291
301 301 301 301 301 301 301 301 302 302 302 302 302 303 303 303 303 304 304 304 303 302 301 301 302 303 303 303 303 303 303 303 303 303 304 304 303 303 303 303 303 302 302 303 303 304 304 304 304 303 303 303 302 303 302 302 301 301 301 300 300 299 299 298 298 299 299 298 298 298 298 297 297 297 296 295 295 295 294 294 293 291 291 292 292 291 290
300 300 300 300 301 301 301 301 301 301 301 301 301 301 302 302 303 303 303 302 301 301 301 302 302 303 303 303 303 303 303 303 303 303 303 303 303 302 302 302 302 302 302 303 303 303 303 303 303 303 302 302 301 301 301 301 301 300 300 300 300 300 299 298 298 299 299 298 298 299 298 297 297 297 296 295 295 295 294 294 293 292 291 291 292 292 291
300 300 300 300 300 300 300 300 300 300 300 300 300 301 301 302 303 303 302 301 301 301 301 302 302 303 302 302 303 303 303 302 303 303 303 303 302 302 302 302 302 302 302 302 302 302 302 302 302 302 302 302 302 302 301 301 300 300 300 300 300 300 300 299 299 299 299 299 299 299 299 298 297 297 296 295 295 295 294 294 294 293 291 290 291 292 292
300 300 299 299 299 299 299 299 298 298 298 299 300 301 302 302 302 302 301 300 300 301 301 302 302 302 302 302 302 302 302 302 302 302 302 302 302 302 302 302 301 301 301 301 301 301 301 301 302 302 302 302 302 302 302 301 301 301 301 300 300 301 300 299 300 300 299 299 299 299 299 298 297 296 296 295 295 295 295 294 294 293 292 290 290 291 292
299 299 298 298 298 298 297 297 297 297 298 299 301 302 302 302 302 301 301 301 300 300 301 302 302 302 302 302 302 302 301 301 301 301 300 300 300 300 301 301 300 300 301 301 301 301 301 301 301 301 301 301 301 301 301 301 301 301 301 301 301 301 300 300 300 300 299 299 300 299 298 298 297 296 296 296 295 294 295 294 294 294 293 291 290 289 290
299 298 298 297 297 297 296 296 296 297 298 299 300 301 301 301 301 301 301 301 301 301 301 301 302 302 301 301 300 300 299 299 298 298 298 298 298 298 299 299 299 299 299 299 299 299 300 300 300 301 301 301 301 301 301 301 301 301 301 301 301 301 301 301 301 300 300 300 300 299 298 298 297 297 296 296 295 294 294 294 294 294 294 293 291 290 289
298 298 297 297 296 296 296 295 295 296 297 298 298 299 299 299 300 300 300 300 301 300 300 301 301 301 300 299 298 298 297 297 297 297 297 297 296 297 298 298 298 297 297 298 298 298 298 298 299 299 300 300 300 300 301 301 301 301 301 301 301 301 301 301 301 301 301 301 300 299 298 298 298 298 297 296 295 295 295 295 295 295 294 294 293 292 290
297 297 297 297 296 296 296 295 295 295 296 297 297 298 299 299 299 299 299 299 300 300 300 300 300 299 298 298 297 297 297 296 297 297 297 297 297 297 298 298 298 297 297 297 297 297 298 298 298 298 299 299 299 300 300 300 300 301 301 301 301 301 300 300 300 300 301 300 300 299 299 299 298 298 297 296 296 296 296 295 295 295 295 294 294 293 292
297 297 297 296 296 296 296 296 296 295 296 297 297 298 299 299 299 298 298 298 298 298 299 298 298 297 297 297 297 297 297 297 297 297 297 297 297 297 297 297 297 297 297 296 296 295 296 297 297 297 298 298 298 299 299 299 300 300 300 301 301 301 300 300 300 300 300 299 299 299 299 298 297 297 297 297 297 297 296 296 296 295 295 295 294 294 293
297 297 296 296 296 295 295 296 296 296 296 297 297 297 297 298 298 298 298 298 298 298 298 298 298 297 297 297 297 297 297 297 297 297 297 297 296 296 296 296 296 296 296 296 295 293 292 293 294 294 295 297 297 297 297 298 299 299 300 300 300 301 301 301 300 300 300 300 300 300 299 298 297 297 297 297 297 297 297 297 297 296 296 296 295 295 294
297 297 296 296 295 295 295 295 296 296 297 296 296 296 296 296 296 296 296 296 297 297 297 297 297 298 298 297 297 297 297 297 297 297 297 297 297 296 296 296 295 295 295 295 294 292 292 292 292 292 293 295 296 296 297 297 298 298 299 300 300 300 300 300 300 300 300 300 300 300 299 299 298 297 297 298 298 298 297 297 297 297 297 297 296 296 295
297 296 296 295 295 295 294 295 295 296 296 296 296 295 295 294 295 295 295 295 295 296 296 296 297 297 297 297 297 297 297 297 297 296 296 296 296 296 295 295 295 295 295 295 294 292 291 292 292 292 292 293 294 296 296 297 297 298 298 299 299 299 299 299 300 300 299 299 299 299 299 299 298 298 298 298 298 298 298 298 298 297 297 297 297 297 296
296 296 296 296 295 295 295 294 294 294 295 295 295 295 295 295 295 295 295 295 294 295 295 295 296 296 296 296 296 296 296 296 296 296 295 295 295 295 295 295 295 295 295 295 294 293 292 292 291 291 291 292 293 294 296 296 297 297 297 298 298 299 299 299 298 298 298 298 298 298 298 298 297 297 297 298 298 298 298 298 298 298 298 298 298 297 297
296 296 296 295 295 295 295 294 294 294 294 294 294 294 295 295 295 295 295 295 295 295 295 295 295 295 295 295 295 296 296 296 296 296 295 295 295 294 294 295 295 295 295 295 294 293 292 292 291 291 291 291 291 293 295 296 296 297 297 297 297 298 298 298 298 298 298 298 297 297 297 297 296 296 296 297 297 297 297 297 297 297 298 298 297 297 297
295 295 295 295 295 295 294 294 294 293 293 293 293 293 294 294 294 294 294 294 294 294 294 294 294 294 294 294 295 295 295 295 295 295 295 295 294 294 294 295 295 295 295 294 293 292 292 292 291 291 291 291 291 292 294 295 295 295 295 295 295 295 296 297 297 297 297 298 297 297 297 296 296 296 296 296 297 297 297 297 297 297 297 297 297 296 296
295 295 295 295 294 294 294 294 294 293 293 292 292 292 292 292 293 293 294 294 294 294 294 294 294 294 294 294 294 294 294 294 294 294 294 293 293 293 294 294 293 293 293 293 292 292 291 291 291 291 291 291 291 292 292 292 292 292 292 293 294 294 295 296 297 297 297 298 298 298 297 297 297 297 297 297 297 297 297 297 297 297 297 297 297 296 296
295 295 295 294 294 294 294 293 293 293 293 293 292 292 292 292 292 292 292 292 293 293 293 293 293 293 293 293 293 293 293 293 293 293 292 292 292 292 292 292 291 291 291 291 291 291 291 291 291 291 291 291 291 291 291 290 291 291 291 292 293 294 294 295 296 296 297 297 298 298 297 298 298 298 298 298 298 298 298 298 298 298 298 298 297 297 296
294 294 294 294 294 294 293 293 293 293 292 292 292 292 292 292 291 291 291 291 291 291 291 291 291 291 291 291 291 291 291 292 292 292 291 291 290 290 290 290 290 290 290 290 290 290 290 290 290 290 290 290 290 290 290 290 290 291 292 292 292 292 293 294 295 295 295 296 296 297 297 297 298 298 298 298 298 298 298 298 298 298 298 297 297 297 297
294 294 294 294 294 293 293 293 293 293 292 292 292 292 292 291 291 291 291 291 291 291 291 291 291 290 290 290 290 290 289 289 289 289 289 289 289 288 288 289 289 289 289 288 288 289 289 289 289 289 289 290 290 290 289 290 290 291 292 292 292 292 292 293 293 294 294 295 295 295 296 297 297 297 298 298 298 298 298 298 298 297 297 297 297 297 297
294 294 293 293 293 293 293 293 293 292 292 292 292 291 291 291 290 290 290 290 290 290 290 290 290 290 290 290 290 289 289 288 288 288 288 288 288 288 287 288 288 288 288 288 288 288 288 289 289 289 289 289 289 289 289 289 290 291 292 292 293 293 293 293 293 293 293 294 294 294 295 296 296 297 297 297 297 297 297 297 298 297 297 297 297 297 297
293 293 293 293 293 292 292 292 292 291 291 291 291 290 290 290 290 289 288 289 289 289 289 289 289 288 288 288 288 288 288 287 287 287 287 287 287 287 287 287 287 288 288 287 287 288 288 288 288 288 288 288 288 288 288 289 290 290 291 292 292 292 292 292 292 292 293 293 294 294 295 295 296 296 296 296 297 297 297 297 297 297 297 298 298 298 298
293 293 293 292 292 292 291 291 291 290 290 290 289 289 289 290 289 289 288 287 287 287 287 288 288 288 287 287 286 287 287 287 286 287 286 286 286 286 286 286 286 287 287 287 287 287 287 287 287 287 287 287 287 287 288 288 289 289 290 291 291 291 292 292 292 291 292 293 294 294 295 295 295 295 296 296 296 296 296 297 297 297 297 297 298 298 298
Wind_Speed
21 22 22 20 18 17 18 21 22 22 23 22 19 18 19 18 14 13 17 18 17 16 20 23 23 22 22 23 25 28 29 27 26 28 28 28 30 28 23 25 28 27 25 24 22 21 20 18 18 18 17 16 17 15 14 15 16 16 16 16 16 15 14 13 12 12 13 14 15 16 15 15 15 15 16 17 17 18 19 20 20 20 21 21 21 22 22
21 22 21 20 19 18 19 22 24 25 24 23 22 22 22 21 18 18 19 19 18 18 20 24 27 28 28 27 29 30 31 30 28 28 29 26 26 29 28 27 27 27 26 23 22 21 20 19 20 18 17 17 16 15 16 16 17 16 16 15 15 14 13 12 11 11 10 11 12 12 12 12 13 15 16 17 18 18 19 20 20 21 21 22 22 23 24
17 20 18 18 20 19 20 23 25 25 23 21 21 20 17 17 18 17 18 17 16 17 21 25 29 32 29 26 29 31 32 32 30 30 30 29 28 29 31 33 31 27 26 25 23 21 20 20 20 18 17 16 15 15 17 17 17 16 15 15 15 13 12 11 10 9 9 10 10 10 11 12 14 15 16 17 18 18 20 21 21 22 22 22 23 23 23
14 17 16 18 19 19 21 25 24 22 19 17 17 16 14 14 14 14 15 14 13 15 19 22 25 27 25 24 28 31 31 32 33 32 33 33 32 33 33 33 34 30 26 25 22 20 20 19 19 18 16 15 15 16 17 17 16 16 15 14 14 12 11 10 9 9 9 9 9 10 11 14 16 16 16 18 18 19 21 21 21 22 23 23 24 24 23
14 17 16 15 15 14 17 18 17 17 17 18 18 17 17 18 15 13 14 13 13 16 17 18 20 21 23 25 27 28 27 29 32 35 38 36 34 36 36 34 35 34 26 21 20 19 19 19 18 18 17 16 15 16 17 16 16 16 15 14 12 11 10 9 8 8 8 8 9 10 11 14 16 16 16 18 19 21 22 22 21 22 22 23 23 23 24
13 17 16 13 12 14 14 11 11 15 17 18 19 17 17 19 16 13 14 15 18 19 18 19 20 21 24 27 29 30 28 27 29 34 35 31 28 31 33 33 34 32 23 19 19 19 18 17 16 16 15 15 15 16 16 16 16 16 15 13 11 10 9 8 7 8 8 9 10 11 12 14 16 16 18 19 21 23 24 23 22 22 23 23 23 23 23
11 13 12 12 14 14 13 12 13 16 17 17 19 18 18 19 19 17 16 18 21 20 19 21 22 22 25 28 29 31 31 29 27 28 31 29 25 25 26 29 30 27 22 19 18 18 17 15 15 14 13 13 14 16 16 16 16 15 13 12 11 10 8 7 7 7 8 9 10 12 12 14 16 18 19 21 22 24 24 23 22 23 23 23 23 22 23
11 11 11 13 14 13 15 16 15 15 15 15 16 17 17 18 18 17 17 18 18 17 17 19 19 22 25 26 28 30 30 32 29 24 27 28 23 21 24 27 25 22 20 18 17 17 16 15 14 13 13 14 14 16 16 16 15 14 13 11 10 9 8 7 7 7 8 9 11 12 13 15 17 19 21 22 23 23 22 21 22 23 23 23 23 23 23
11 12 13 13 14 14 16 14 9 7 8 8 7 9 12 14 15 14 14 14 14 13 16 17 19 21 21 19 24 27 27 30 29 25 26 24 19 19 21 22 21 19 18 16 16 16 14 13 13 11 12 14 15 16 17 16 14 13 12 10 9 8 7 6 6 7 8 10 11 12 14 15 18 20 22 23 24 23 22 22 23 24 23 23 23 24 25
10 12 12 11 12 13 12 7 0 2 4 5 3 5 10 12 10 7 6 8 10 12 14 15 17 19 15 12 16 20 21 25 27 27 27 24 22 22 21 21 19 17 16 15 14 14 13 11 11 10 12 15 16 17 17 15 14 13 11 10 8 6 6 5 6 7 8 10 12 13 14 16 19 21 23 24 24 22 21 23 24 23 23 23 24 25 25
11 12 12 11 11 9 9 6 3 3 4 4 4 6 8 5 5 5 5 7 10 11 12 15 14 13 11 10 12 17 23 28 30 28 28 26 23 22 21 20 18 16 16 14 12 12 11 10 11 11 13 16 17 17 17 15 14 12 10 9 7 5 4 5 6 8 8 10 12 13 14 16 18 20 22 23 23 22 21 22 23 22 22 24 25 25 26
12 12 11 10 8 9 13 10 1 1 2 1 2 8 5 4 7 8 7 9 11 12 13 13 11 9 10 12 16 22 28 31 30 24 25 23 20 21 19 17 16 15 13 12 10 9 9 9 10 12 14 17 18 16 15 14 12 11 9 7 5 3 4 4 6 7 8 10 12 13 14 16 17 19 20 21 22 22 21 21 22 22 22 24 26 27 26
12 13 12 9 8 8 9 8 5 3 3 4 7 8 6 8 12 11 10 10 12 12 13 12 10 13 17 21 25 26 23 19 16 14 17 15 13 15 15 15 14 11 10 10 9 8 8 9 10 13 16 18 17 16 14 13 11 10 8 6 3 2 3 4 5 7 9 10 12 13 14 14 15 17 19 20 20 21 21 20 21 22 24 25 26 26 25
10 11 10 10 9 3 3 7 8 4 4 6 7 8 14 18 17 14 13 13 12 12 14 15 15 20 25 26 27 24 18 14 14 13 13 11 8 8 11 13 12 9 8 9 8 8 8 9 11 14 17 18 17 15 14 12 10 9 7 4 2 1 2 4 6 8 9 10 11 12 13 14 15 17 19 20 19 19 20 20 21 23 26 26 25 25 26
9 10 10 10 7 1 3 5 7 2 4 8 11 14 19 20 19 19 18 15 13 13 15 17 20 23 26 26 25 23 19 16 17 16 13 12 10 7 7 10 11 9 8 8 8 8 8 9 12 16 18 18 17 15 13 11 9 8 6 4 2 1 2 4 6 8 9 10 11 12 13 14 15 17 20 21 19 19 19 20 21 23 24 25 24 25 28
7 9 9 7 6 5 6 10 10 6 9 15 17 17 17 16 18 20 19 17 15 15 16 20 22 23 24 26 25 20 16 13 15 16 13 12 13 10 9 10 10 9 8 7 8 9 8 10 14 17 19 18 16 14 12 10 9 7 5 3 2 0 3 5 6 8 9 10 11 12 13 14 15 17 19 20 19 18 18 19 21 22 22 23 25 27 31
7 9 9 10 14 18 19 19 18 18 18 17 15 15 15 15 15 14 16 18 17 16 18 20 21 21 22 24 23 18 14 14 15 15 13 12 13 11 9 9 8 7 7 7 8 8 8 11 15 18 19 18 16 14 12 10 8 7 5 3 2 1 3 4 6 7 9 10 12 13 14 14 15 16 18 19 19 19 19 20 21 21 21 23 26 30 34
9 13 16 16 19 22 22 20 20 19 14 10 10 11 12 15 14 13 15 18 18 17 19 20 21 22 22 23 22 14 8 11 16 16 13 11 10 10 9 8 7 7 6 7 8 8 9 12 15 18 18 17 15 14 12 10 8 6 5 3 2 1 2 4 6 7 9 11 12 14 14 14 14 15 17 19 20 21 21 21 21 21 22 24 28 30 34
8 10 12 14 16 18 20 22 21 14 6 4 5 8 11 15 16 14 15 17 17 17 18 19 21 21 20 21 19 10 6 12 17 14 12 11 10 10 9 8 7 7 6 7 8 8 9 12 15 18 18 16 15 13 11 9 8 6 5 3 2 1 3 4 6 8 10 11 13 14 14 14 14 15 17 18 20 21 23 24 24 24 24 26 29 30 33
9 11 14 17 22 24 26 26 19 9 6 6 7 9 15 18 16 14 15 15 15 16 18 18 19 20 20 19 15 12 11 13 14 11 10 10 9 8 8 7 7 7 6 7 8 9 10 12 15 17 17 16 15 13 11 10 8 6 4 4 3 2 3 4 7 9 10 11 13 14 14 15 15 15 16 19 21 24 26 28 28 28 27 27 28 30 33
12 14 17 20 21 22 23 21 11 5 7 10 11 12 18 21 17 14 14 13 13 16 17 15 13 13 13 12 10 12 13 14 13 11 8 8 8 7 7 6 6 5 5 6 7 9 11 13 15 17 17 16 15 13 12 10 9 6 4 5 4 3 3 5 8 10 9 10 12 14 14 15 15 15 16 20 23 25 27 29 29 27 26 26 27 28 30
10 11 13 15 13 11 14 16 11 8 11 13 12 14 17 19 16 13 13 14 15 14 11 7 5 4 5 6 6 7 7 7 9 9 7 7 8 6 5 6 5 4 5 6 8 10 12 13 15 17 17 16 15 13 12 10 9 6 4 3 2 2 3 4 8 11 10 10 13 14 15 16 16 15 16 19 22 25 27 28 27 24 23 24 25 25 27
12 14 16 16 14 13 14 16 15 16 16 15 15 16 16 15 13 12 12 14 15 11 4 3 4 6 4 5 6 4 2 3 4 5 5 5 6 5 6 6 5 3 5 7 9 11 13 13 15 16 17 16 15 14 12 10 8 6 4 3 1 2 4 5 9 11 10 11 13 14 15 17 17 16 16 16 19 23 26 27 27 24 22 23 24 24 25
18 20 20 19 19 18 17 16 17 17 16 13 14 17 17 13 11 11 10 11 12 5 6 5 6 7 5 6 7 7 6 5 4 4 5 4 4 5 6 6 5 4 6 9 10 11 12 13 15 17 17 16 15 14 12 10 8 5 4 2 0 3 4 6 8 9 10 12 13 14 15 17 17 17 15 15 18 21 23 26 29 26 24 24 24 23 24
20 20 22 24 24 20 17 18 18 15 12 11 12 15 16 14 12 11 9 10 9 5 9 7 7 5 5 6 7 7 7 6 5 6 7 5 3 4 6 6 5 6 8 11 12 12 13 15 17 18 17 16 15 14 12 9 7 6 4 2 1 2 4 6 7 8 10 12 12 13 15 17 17 17 16 16 18 21 24 29 32 29 26 25 23 23 24
21 20 21 24 23 20 17 18 17 12 10 10 13 16 16 14 11 10 9 10 9 7 10 8 5 2 3 6 5 5 6 5 4 5 5 5 4 6 7 7 7 10 12 13 13 13 14 16 17 17 16 14 13 12 11 8 7 6 4 3 1 1 5 8 8 8 11 12 12 13 15 16 17 18 17 16 18 20 24 32 38 34 28 27 25 22 23
18 17 18 19 18 18 17 15 13 11 11 12 14 16 15 12 10 10 8 8 9 8 11 10 6 3 3 4 5 7 5 4 3 3 4 6 7 9 10 11 12 14 14 14 15 15 15 15 15 15 13 12 12 11 9 8 7 6 5 2 2 3 7 12 11 10 12 13 11 12 15 17 17 19 18 17 17 18 21 30 38 36 31 29 28 25 23
17 17 19 18 17 17 15 13 12 13 13 12 13 15 13 10 9 9 8 8 9 7 9 9 7 4 3 3 8 9 6 6 6 6 8 10 11 12 15 17 18 18 16 14 14 15 14 12 11 12 11 10 10 9 8 8 7 6 5 3 3 4 7 11 11 11 12 13 12 13 17 18 17 18 19 18 17 16 18 25 34 36 32 31 31 28 24
15 17 18 18 17 15 13 12 13 13 12 12 12 13 12 10 9 9 8 9 9 8 9 7 4 3 4 5 7 9 10 10 10 9 10 12 12 14 17 19 20 20 19 16 13 11 10 9 9 9 9 9 9 9 8 8 7 6 5 4 4 4 5 8 9 10 12 14 14 15 18 18 17 18 19 18 17 16 16 21 30 35 33 32 33 31 29
12 13 13 13 12 10 10 12 13 12 10 11 11 11 11 10 10 9 9 11 12 13 13 8 4 4 6 7 9 11 12 12 13 13 13 13 13 14 14 15 17 19 18 16 14 11 7 6 7 7 6 6 7 7 7 7 7 7 7 6 7 7 8 9 10 10 12 14 15 16 16 16 16 18 19 18 17 16 15 18 26 33 34 33 32 32 32
13 13 12 9 7 7 9 11 10 9 9 10 10 10 11 10 9 8 9 12 14 15 13 8 5 7 10 11 11 12 12 13 14 15 16 17 17 16 13 12 15 17 17 15 14 12 10 9 7 5 4 4 6 7 8 8 7 5 6 7 9 10 12 13 13 13 13 14 15 15 15 15 16 17 17 17 17 16 16 16 21 28 33 34 31 30 30
12 12 8 6 5 5 6 8 9 9 10 10 10 10 10 9 7 5 5 9 13 13 10 6 7 11 13 12 12 13 13 14 15 17 18 19 20 19 16 14 14 15 14 13 13 13 12 10 8 7 6 3 4 7 10 11 9 8 8 8 8 10 13 14 16 15 13 13 15 16 14 14 15 15 16 16 16 16 16 16 17 21 27 32 31 28 29
6 5 7 10 9 8 8 9 10 10 11 11 10 10 8 7 5 5 9 14 14 11 8 8 11 13 14 14 14 15 15 16 18 19 21 21 21 21 20 18 16 14 13 11 11 10 10 9 8 8 7 5 3 2 6 9 12 14 15 12 9 10 12 13 14 14 12 12 14 15 14 13 13 14 15 15 15 15 16 16 15 16 20 27 29 28 27
8 10 11 11 10 9 9 10 10 10 10 10 9 7 5 3 6 11 16 17 13 10 10 12 14 14 15 16 16 16 17 19 19 20 21 22 22 22 22 21 20 18 17 15 13 13 11 9 8 8 8 8 6 4 4 6 7 9 11 11 10 10 10 11 11 11 10 12 13 13 12 11 11 13 14 14 15 15 15 16 15 14 16 21 26 28 28
11 12 12 11 11 10 9 9 8 8 8 8 5 1 5 9 14 16 17 15 12 11 11 13 15 16 17 18 18 19 20 21 20 21 21 22 21 21 22 22 22 22 21 20 19 18 16 13 11 11 10 9 7 5 4 4 3 3 6 8 9 10 10 11 11 9 9 11 12 11 11 10 11 12 13 14 15 15 14 15 15 14 14 17 21 24 26
11 12 12 12 13 11 9 9 7 4 5 8 9 12 16 18 18 17 16 14 13 11 12 15 18 20 21 22 23 24 24 22 21 22 22 21 21 22 23 23 22 22 22 21 20 19 18 17 16 15 13 12 11 9 8 8 6 4 5 6 7 7 8 8 9 9 9 10 10 10 10 11 11 12 12 12 14 16 15 15 14 13 14 16 18 21 23
12 12 12 13 15 15 14 13 9 7 8 13 17 19 22 24 23 21 20 18 15 14 16 20 22 23 23 24 25 24 23 22 22 22 22 22 23 23 23 23 22 21 21 20 19 18 19 19 18 16 15 15 14 12 10 10 10 8 7 6 6 6 6 7 8 9 9 8 8 8 9 10 10 11 11 12 13 14 15 16 15 14 13 15 17 18 19
12 12 12 13 16 18 20 20 19 19 20 23 26 26 26 27 26 24 23 22 20 18 20 24 25 24 24 25 25 24 23 22 23 23 23 23 24 25 25 24 22 22 21 19 17 16 18 18 17 16 15 15 15 14 13 13 12 10 8 7 7 7 7 6 6 7 7 7 7 7 7 8 9 9 11 13 14 14 14 15 16 15 14 13 14 15 17
13 13 13 13 15 19 22 24 25 27 28 29 29 29 27 27 26 25 25 24 23 21 21 23 24 24 25 25 24 24 23 22 22 23 23 24 25 26 26 24 22 22 21 18 16 16 17 16 16 16 16 15 14 13 14 14 13 11 10 9 9 8 8 7 7 7 7 7 6 5 5 7 8 9 10 13 15 16 16 16 18 18 16 14 14 13 14
13 14 15 14 15 19 23 25 27 28 28 27 27 26 25 25 25 25 25 25 24 25 25 25 22 21 23 23 23 22 21 20 20 20 20 21 22 23 23 23 22 22 21 20 18 17 17 17 16 16 15 15 15 14 14 14 14 12 11 11 11 10 10 9 8 7 7 6 6 5 5 6 7 8 10 12 14 16 17 18 19 20 20 18 15 14 14
16 17 17 17 17 19 22 24 26 27 26 24 23 23 22 22 23 23 24 24 25 26 28 27 24 20 19 19 20 20 20 20 19 19 19 19 19 20 20 20 19 20 20 19 18 18 18 17 17 15 14 14 15 15 16 15 14 12 11 12 12 12 11 10 10 10 8 7 6 5 5 6 7 7 9 12 13 14 15 17 17 19 21 20 17 15 15
19 20 21 21 21 21 22 25 28 28 26 24 22 20 20 21 21 21 21 22 23 25 27 28 26 22 19 18 18 18 19 19 19 19 19 19 18 18 18 17 16 17 18 18 17 18 18 17 16 15 14 13 13 15 16 16 13 12 11 12 12 13 13 12 12 11 10 8 6 4 3 4 5 5 7 9 11 12 13 15 16 17 18 20 19 17 17
20 22 22 23 23 23 23 25 28 29 28 26 23 21 19 18 17 17 17 18 19 21 22 23 23 21 19 18 17 16 16 16 16 17 17 17 16 15 15 15 14 15 16 16 17 17 17 16 15 15 15 13 12 13 15 15 13 12 12 11 11 12 13 13 13 12 10 8 5 2 2 1 1 3 3 6 8 9 9 11 13 15 15 17 18 17 16
20 21 22 23 23 23 23 24 26 27 28 28 27 24 22 19 16 15 15 15 15 16 17 17 18 18 18 17 16 15 15 14 14 13 13 13 12 12 12 12 12 12 13 15 16 16 15 15 14 14 13 12 11 12 14 14 13 12 12 12 11 11 12 12 13 13 11 9 7 3 1 2 2 2 2 3 6 8 8 8 9 11 12 13 14 15 15
20 21 21 22 22 22 22 23 23 24 25 26 27 26 25 23 20 18 17 16 14 13 13 12 12 13 14 14 14 14 13 13 13 12 11 10 10 10 10 11 12 12 12 14 15 15 14 13 13 12 11 11 10 11 12 11 11 11 11 11 10 10 10 10 11 11 11 10 9 6 3 0 2 3 4 6 8 9 9 8 8 9 9 9 10 11 12
19 18 19 20 21 20 20 20 20 20 20 22 22 22 22 21 20 19 17 16 15 14 12 11 10 10 11 11 11 11 11 11 11 12 11 10 9 9 9 10 12 13 14 14 14 14 13 12 11 10 10 9 9 9 9 8 7 7 8 8 8 9 9 8 9 10 10 10 10 9 7 5 2 2 4 6 7 8 8 8 8 9 9 9 8 7 7
17 17 18 18 19 18 18 17 17 17 17 18 18 18 17 17 17 16 15 14 13 12 10 9 9 9 8 9 9 9 9 8 9 9 10 9 8 9 11 11 11 13 15 15 14 14 13 11 10 9 9 8 7 7 7 6 5 5 6 6 7 7 7 8 8 8 8 9 9 9 8 7 6 5 5 5 5 6 7 7 7 7 7 8 8 8 8
15 16 16 16 16 16 16 15 15 15 15 15 15 14 14 13 14 13 13 12 12 11 10 9 9 8 8 9 9 8 7 6 6 7 8 7 6 8 12 13 12 11 12 13 13 13 12 11 10 9 8 7 6 6 5 5 4 4 4 5 6 6 6 6 7 7 7 8 8 8 8 8 7 7 7 7 6 7 7 7 6 6 5 6 7 8 9
14 14 14 14 14 13 13 13 13 13 13 12 12 11 11 11 11 11 10 9 9 9 9 9 9 8 8 8 8 8 7 5 5 5 6 7 7 9 11 13 12 11 9 10 11 12 11 10 9 8 7 7 6 6 5 4 3 2 3 4 5 6 6 6 6 7 7 7 7 8 8 8 8 8 8 7 7 7 7 7 7 7 6 5 5 6 7
11 11 11 12 12 11 11 11 11 11 10 10 9 8 8 8 8 9 9 8 7 7 6 6 7 7 7 6 6 7 7 7 7 6 5 6 8 11 11 11 11 11 9 8 8 10 10 9 9 8 7 7 7 6 5 5 3 3 3 4 5 5 6 7 7 7 7 7 7 8 8 8 8 8 7 7 7 7 7 7 7 7 6 6 6 5 4
9 10 10 11 11 11 11 10 10 9 8 8 8 8 7 7 7 7 8 8 7 6 6 5 5 6 6 6 5 6 6 7 7 7 7 6 7 9 10 9 9 9 8 7 7 8 8 9 9 8 6 6 7 6 5 4 3 3 3 3 4 5 6 6 7 7 7 7 7 7 8 8 8 7 7 7 7 7 7 7 7 6 6 6 6 5 5
9 10 10 10 10 9 9 8 8 8 7 7 7 7 7 6 6 7 7 8 7 7 6 5 5 5 5 5 5 6 6 6 6 6 6 5 5 6 7 7 6 7 7 7 6 7 7 8 8 8 7 6 6 6 5 4 3 3 3 3 4 4 5 7 7 7 7 7 7 6 6 6 6 6 7 7 7 6 6 7 7 7 7 6 6 6 5
Wind_Direction
264 268 272 274 276 276 275 275 273 271 270 268 267 266 269 273 272 273 283 287 283 281 283 284 284 285 284 284 284 284 279 276 280 281 279 287 293 282 257 238 228 221 220 217 212 218 221 215 205 198 194 186 180 190 201 195 195 208 213 206 200 201 207 214 223 238 255 269 280 287 288 286 284 281 280 281 281 282 281 280 278 277 275 274 271 270 270
269 269 272 275 277 275 273 272 269 266 265 265 266 266 267 268 267 271 277 279 278 277 276 279 281 282 284 285 283 279 275 268 263 263 263 264 272 281 281 267 244 225 221 220 216 220 216 202 196 195 190 184 181 182 183 185 191 203 206 200 197 200 205 212 223 237 252 264 273 278 274 272 276 279 282 284 283 284 283 281 281 279 276 273 271 269 270
271 269 272 274 273 272 272 268 264 264 267 268 267 267 267 269 269 269 269 270 272 272 272 274 279 281 282 282 278 275 271 267 262 257 255 251 250 259 270 274 265 242 223 222 224 215 201 195 196 196 191 187 185 181 178 181 187 192 195 195 196 198 203 210 222 235 247 254 258 261 266 274 281 282 282 284 284 285 285 284 283 282 278 275 272 271 270
269 268 268 267 269 272 270 265 262 264 267 267 265 265 264 263 264 264 265 264 263 267 272 274 276 279 280 278 277 275 271 267 263 257 252 250 247 248 251 256 261 255 237 225 219 201 190 196 199 195 192 190 188 184 180 180 183 185 187 190 193 198 204 212 224 237 248 253 253 259 273 283 283 281 281 283 284 286 287 286 285 284 282 279 276 274 272
269 270 270 272 276 272 263 260 261 262 261 259 261 262 260 258 257 259 261 261 264 270 274 276 278 279 279 277 277 279 279 277 274 265 256 248 243 244 242 239 246 253 244 219 203 192 191 196 197 194 195 195 193 188 183 181 182 183 184 188 192 198 205 215 228 241 250 254 257 267 280 284 280 279 281 283 285 286 287 288 288 287 284 282 280 277 275
267 271 275 277 269 258 257 265 267 263 262 262 261 260 259 256 253 256 265 269 271 272 274 278 280 281 283 283 284 286 286 283 284 279 268 256 246 242 236 231 236 240 228 203 190 188 190 190 191 193 194 194 194 188 184 184 183 183 187 191 195 199 206 218 232 247 254 256 264 274 281 282 280 280 282 284 285 285 285 288 289 288 287 284 282 280 278
266 270 272 264 252 251 264 276 270 266 270 270 268 266 263 263 264 265 269 272 274 278 284 287 291 298 303 300 295 293 288 281 280 282 276 267 255 245 239 234 232 222 203 187 179 178 181 183 183 187 187 188 189 187 186 184 182 185 190 194 197 201 207 221 235 248 256 260 269 277 279 281 282 282 284 286 285 284 284 287 289 289 288 287 284 282 281
262 264 257 253 258 267 273 274 274 276 277 275 274 271 267 269 274 274 272 273 277 285 295 301 308 314 313 303 290 283 281 280 277 272 270 266 252 241 238 230 217 197 180 172 168 172 180 181 182 189 193 192 191 189 187 183 182 187 191 194 202 203 207 224 239 249 260 266 272 278 280 282 284 285 286 287 286 286 287 288 290 290 289 288 287 285 283
255 260 259 263 273 274 271 273 278 284 285 284 285 281 277 275 275 277 282 287 294 302 306 313 321 318 310 298 284 277 274 276 272 261 263 267 251 233 222 203 183 171 169 168 167 172 179 180 187 199 199 195 193 189 185 184 186 188 189 195 202 204 209 228 243 254 267 273 275 279 282 284 285 286 287 287 286 288 291 292 293 293 291 291 290 288 286
254 260 261 266 269 266 269 276 273 61 341 337 335 289 280 279 277 287 313 310 304 307 309 315 319 314 304 287 286 292 292 289 281 266 259 259 244 223 200 173 162 162 166 168 170 174 178 184 193 202 201 195 191 186 184 186 189 190 195 201 200 202 216 236 253 263 272 277 278 282 283 284 285 285 286 288 288 289 292 295 295 295 294 294 293 291 289
255 258 260 262 260 264 281 285 111 81 349 359 358 293 285 306 322 334 346 319 302 303 310 314 312 305 295 286 296 310 310 305 299 281 261 249 230 206 182 167 168 168 166 168 170 173 181 192 198 205 201 193 187 185 186 188 191 195 201 201 194 200 231 253 267 273 278 280 280 282 284 285 286 286 287 289 289 290 295 297 297 297 297 297 296 294 292
254 255 260 266 265 273 285 286 274 122 257 212 275 274 285 5 334 321 329 318 309 309 311 311 304 289 288 295 306 313 309 305 299 274 244 229 207 184 173 172 172 168 169 175 177 179 190 197 199 201 195 187 184 185 186 187 191 195 195 190 189 216 256 274 280 281 282 282 281 281 284 285 288 290 291 292 291 293 298 299 299 300 300 299 297 296 296
253 253 257 265 271 276 293 314 338 338 290 262 256 272 323 338 313 312 323 313 309 313 309 304 297 289 292 295 301 307 306 295 279 240 212 209 199 179 170 167 164 166 176 182 180 185 190 193 196 193 188 185 184 184 184 186 189 189 182 178 192 240 279 290 286 280 279 279 280 282 285 287 290 292 295 295 295 298 301 302 302 303 303 301 300 298 298
251 258 260 266 273 276 41 356 332 317 288 273 270 302 321 315 307 312 315 308 310 313 305 301 296 293 294 294 295 301 300 274 247 221 200 199 195 162 152 161 169 176 179 174 174 182 185 188 192 188 184 183 183 182 180 183 187 184 172 169 191 244 288 287 280 280 281 282 284 287 289 290 293 296 296 296 299 304 304 305 306 306 306 304 301 300 300
258 264 261 264 275 206 101 319 304 242 241 284 299 305 305 305 310 311 307 304 311 311 304 301 298 296 297 296 294 298 297 268 229 206 190 180 166 143 153 175 183 182 176 174 179 185 189 191 189 186 183 181 181 180 178 182 188 181 162 154 168 222 286 286 283 284 289 291 291 293 294 294 297 300 298 296 301 307 305 306 308 308 308 307 304 303 304
263 261 259 273 304 309 286 288 292 282 282 295 303 302 299 303 308 306 301 301 305 308 305 301 299 298 297 295 293 295 295 268 221 197 183 172 165 167 175 174 172 178 182 179 177 178 185 189 186 184 182 180 179 181 182 185 191 184 163 146 128 349 298 296 293 292 296 299 298 298 299 299 301 302 299 300 306 309 307 306 307 308 309 309 307 308 310
263 266 273 288 298 294 289 287 288 289 291 296 299 300 298 297 300 303 303 303 303 306 306 302 300 299 295 292 292 295 297 278 243 211 191 177 169 170 171 163 164 180 182 173 174 179 184 186 184 182 180 179 180 185 187 188 189 183 168 144 98 26 316 308 305 304 308 307 304 304 302 301 303 304 302 304 310 313 312 309 306 305 307 310 312 314 315
279 269 266 273 280 284 287 286 285 289 297 300 296 297 299 299 303 308 307 306 307 309 308 304 299 295 291 289 289 291 288 260 239 214 192 181 171 165 165 164 167 174 172 171 178 184 184 184 183 181 180 181 185 187 186 187 188 184 170 146 111 22 337 330 324 321 320 313 310 310 307 304 304 305 304 306 310 315 317 314 309 304 304 312 318 319 318
287 271 268 279 286 289 291 287 284 294 320 325 298 297 299 299 302 308 311 313 314 314 310 303 296 291 289 286 278 260 229 243 243 223 192 174 166 160 158 159 163 165 172 179 182 185 188 186 183 180 178 181 186 184 180 182 185 177 158 136 116 52 7 354 343 337 329 322 320 319 314 308 306 307 309 307 309 317 319 317 316 312 307 314 322 324 322
261 261 268 277 280 282 283 281 282 300 327 320 317 311 303 299 300 307 313 316 318 317 311 300 290 284 282 277 260 230 225 244 246 228 194 170 162 155 149 153 159 162 175 189 189 188 187 183 182 182 179 181 182 175 171 178 181 170 145 120 108 68 28 14 359 347 336 330 329 326 321 315 310 309 311 307 309 317 320 320 321 318 313 316 324 327 324
261 263 269 271 272 278 280 276 281 336 336 320 321 314 303 300 301 309 315 318 321 318 308 298 291 279 267 256 241 234 241 240 225 211 194 173 165 155 143 148 156 160 175 190 188 184 180 178 182 183 180 181 180 171 169 178 179 167 139 112 102 61 33 26 8 353 339 333 335 331 327 324 316 310 309 310 314 319 320 321 324 320 314 317 323 325 323
265 265 269 270 272 282 284 281 293 328 328 317 311 306 302 299 300 310 317 319 322 318 301 286 304 295 244 235 248 255 252 234 209 192 179 175 175 167 157 162 160 157 173 180 180 178 172 172 180 181 179 181 179 172 174 181 175 163 146 131 115 39 26 10 357 353 343 332 333 333 332 330 324 316 314 317 322 322 320 325 330 324 317 318 320 321 321
275 275 273 277 284 289 292 295 303 310 313 310 303 300 299 295 299 311 318 320 325 321 265 227 325 330 289 265 275 265 185 186 205 197 187 185 181 173 175 179 172 164 170 172 173 175 171 169 175 177 178 179 177 174 177 177 169 160 151 145 118 23 12 341 337 345 342 333 332 334 334 332 328 323 320 322 325 321 320 331 340 336 328 325 322 321 321
279 283 285 287 287 286 291 297 300 300 304 307 302 298 292 289 300 313 316 322 326 300 213 231 309 313 279 264 268 250 214 194 199 204 194 186 180 175 177 178 168 155 156 157 159 165 168 168 169 168 166 167 168 169 172 169 164 164 162 151 55 6 359 338 332 334 335 334 334 334 336 335 333 329 325 323 328 326 325 337 348 347 342 338 331 326 326
279 288 294 289 282 282 289 293 291 293 300 305 305 300 292 291 304 309 303 313 317 247 210 245 288 269 245 263 269 246 211 190 206 213 195 177 169 165 161 158 147 142 147 147 144 149 155 157 158 159 158 158 161 164 167 169 172 171 160 134 67 13 357 342 331 326 331 336 335 335 339 338 336 336 331 327 333 334 332 341 351 354 352 349 341 333 333
269 272 279 279 277 280 285 285 283 287 298 305 305 298 290 290 302 302 292 304 305 246 218 243 270 233 254 276 256 203 171 172 211 224 191 158 140 140 142 141 137 137 138 134 130 136 144 149 153 157 160 163 167 168 171 177 181 177 163 146 150 338 352 352 342 328 329 335 335 337 341 340 338 341 338 330 334 337 335 344 354 357 356 356 354 346 344
277 276 276 276 278 278 274 274 281 290 298 302 300 295 292 294 303 298 285 295 301 264 229 236 250 260 286 253 182 154 146 150 143 126 132 133 127 124 123 120 120 123 123 125 135 143 146 149 156 161 163 169 174 177 181 185 184 178 170 173 235 299 340 351 349 333 327 332 334 336 341 342 344 347 343 334 335 338 336 345 355 359 357 359 3 2 357
304 301 292 288 290 287 279 276 284 288 290 292 293 294 296 295 294 288 270 270 285 265 222 219 228 234 247 199 156 137 118 109 105 105 119 122 114 113 117 115 114 113 109 112 133 150 151 151 159 164 167 174 178 182 189 194 197 198 199 216 257 287 322 336 335 326 325 329 328 330 339 345 346 347 345 340 339 340 338 345 356 1 0 0 5 7 5
308 304 298 293 295 299 296 291 288 286 287 290 292 295 296 290 288 284 260 248 253 230 196 191 206 203 191 172 146 125 106 95 91 93 106 111 108 112 117 114 113 115 114 109 113 131 147 156 163 166 170 176 182 190 197 202 209 221 230 249 271 284 307 321 324 324 326 327 326 328 337 344 344 343 345 345 344 344 341 344 355 2 4 3 6 8 7
296 297 299 293 291 297 297 292 291 293 296 296 294 294 292 289 287 278 252 240 236 216 194 188 211 197 170 150 133 118 105 95 89 88 92 96 100 107 112 111 113 120 124 117 107 105 117 134 147 158 167 177 189 200 208 215 226 239 249 260 273 281 286 298 313 322 323 324 326 329 334 340 342 342 344 346 348 349 346 344 352 2 7 7 9 12 11
288 283 287 289 290 294 295 297 303 310 310 303 299 297 294 290 285 273 248 231 219 200 183 182 200 179 155 139 129 120 109 100 93 87 83 83 89 97 106 116 122 126 128 126 117 107 100 96 96 105 126 158 180 189 197 206 215 230 244 254 272 286 288 293 304 316 319 318 322 328 333 338 342 346 346 346 349 354 354 347 348 359 8 11 12 16 18
292 289 307 344 349 329 322 327 329 324 318 314 309 303 296 286 281 274 226 196 188 176 165 169 176 161 146 133 122 114 107 101 95 88 82 79 83 90 96 105 115 120 122 124 124 120 113 102 88 80 87 115 180 201 208 212 214 222 233 240 259 280 289 291 295 303 313 318 320 326 332 334 339 347 350 350 352 355 358 357 351 354 6 13 15 17 23
316 344 24 26 16 360 352 348 338 327 323 319 311 302 293 275 254 210 168 161 163 166 170 170 161 150 139 128 118 110 104 98 92 88 84 80 81 85 88 90 96 101 104 110 118 120 118 111 96 79 68 51 18 300 252 246 248 252 256 260 266 279 291 295 294 298 312 320 319 324 331 333 338 346 349 350 354 355 357 3 0 353 1 13 18 20 24
46 55 48 34 22 13 1 350 341 333 329 322 309 297 284 228 168 156 153 152 152 159 170 169 159 145 130 120 112 105 101 97 91 88 86 84 82 82 83 83 84 84 83 85 88 88 87 91 92 83 70 56 40 8 305 284 273 262 259 259 258 265 283 296 295 299 313 314 313 323 333 334 340 350 350 351 357 358 358 4 7 1 359 8 17 23 25
72 65 55 43 33 26 17 8 0 345 335 336 337 38 124 124 128 133 138 141 142 148 160 161 149 132 119 113 111 108 102 97 93 91 89 87 86 85 83 81 78 75 72 71 68 64 63 69 77 77 68 60 53 34 354 339 333 279 263 267 269 271 283 294 296 302 311 309 310 322 332 331 337 350 354 357 1 3 1 3 8 9 5 5 12 21 25
79 70 62 52 44 42 41 38 31 12 12 35 66 95 105 107 110 115 120 125 132 142 149 145 132 118 109 106 108 107 102 96 92 91 90 87 86 85 82 77 74 71 70 66 60 57 58 61 64 63 58 51 48 44 37 37 34 2 329 329 327 314 303 298 292 290 297 304 311 320 326 329 338 348 356 4 10 11 9 7 7 10 10 9 11 18 23
81 78 72 62 56 58 62 66 75 84 77 78 87 95 98 100 104 108 109 108 111 122 130 127 120 113 108 106 104 102 100 96 93 92 90 87 85 82 76 71 68 66 65 61 55 56 61 61 58 58 57 50 43 41 44 47 42 24 5 2 356 340 324 305 288 285 292 307 319 325 328 334 343 352 1 11 15 13 11 11 10 10 12 12 12 15 20
81 79 77 70 63 63 66 73 84 93 94 92 93 95 98 101 104 107 106 103 103 109 114 113 111 109 107 106 104 101 99 97 94 91 87 84 81 77 71 65 62 60 58 54 52 61 69 66 57 55 55 47 40 44 54 55 45 29 19 18 12 3 358 346 329 323 326 323 319 326 339 346 349 358 11 16 14 11 13 17 18 16 15 17 16 15 19
84 80 79 73 66 65 68 72 78 85 90 92 91 92 98 102 103 103 101 98 99 101 101 103 107 109 107 107 105 102 100 97 94 90 87 82 78 75 70 64 61 61 60 55 52 61 69 66 56 51 49 43 39 47 57 55 45 34 26 25 23 19 16 10 359 351 347 340 336 348 5 4 0 7 18 20 19 20 25 29 28 24 22 22 21 20 20
87 82 79 74 68 67 69 71 74 80 88 93 93 93 96 99 101 101 96 93 95 97 94 92 95 100 104 105 105 102 100 99 94 90 87 82 78 76 70 61 58 62 61 53 46 49 58 60 58 59 61 58 55 55 55 50 45 38 30 26 26 24 21 18 14 6 360 359 4 14 18 12 11 18 23 23 23 26 29 31 32 31 28 27 26 26 26
91 87 82 78 74 69 69 72 76 81 86 91 93 95 97 98 98 96 93 92 97 99 94 88 84 84 88 93 94 94 96 96 93 89 84 77 72 69 64 58 57 61 60 50 41 41 48 51 51 56 65 69 66 60 51 44 40 34 28 28 30 28 23 22 21 18 14 12 12 16 19 17 15 20 22 21 22 25 27 28 31 32 31 30 29 28 28
94 91 85 80 78 75 72 74 78 82 85 89 94 99 104 103 99 94 94 99 103 102 97 93 90 87 86 87 89 90 91 92 93 92 87 81 74 68 61 55 54 56 56 49 39 37 41 43 43 45 51 57 60 57 48 40 33 29 29 29 29 28 29 29 26 22 21 21 18 24 44 41 27 21 21 20 20 20 22 24 26 27 28 30 31 30 29
94 92 88 85 82 78 75 74 75 77 79 83 88 96 103 107 105 101 101 105 107 104 98 93 88 83 79 77 79 82 81 80 82 84 81 79 79 76 67 58 50 43 41 39 36 33 32 34 37 38 37 39 48 52 43 33 27 27 30 30 27 27 29 31 28 26 28 28 24 25 175 162 20 17 35 36 28 19 16 18 19 19 19 23 25 26 27
93 91 90 89 85 81 79 77 76 76 78 79 81 85 91 97 101 103 105 108 110 109 102 90 77 70 66 62 62 66 67 65 65 67 64 62 63 63 58 51 42 32 25 24 24 24 23 25 28 31 29 28 35 43 37 28 24 26 28 28 28 30 32 34 34 33 34 36 39 51 184 228 284 319 339 351 350 349 349 354 1 5 9 12 14 17 21
93 90 89 89 87 84 82 80 79 80 81 80 79 80 82 85 90 94 98 102 105 105 101 92 79 71 69 64 59 58 59 58 56 55 52 47 45 41 35 26 18 11 8 8 9 10 13 16 17 20 21 20 25 31 30 25 24 28 29 29 31 34 35 36 38 38 38 41 45 51 60 246 276 297 306 310 318 328 334 332 330 336 344 350 356 5 13
95 93 91 90 88 85 84 84 84 83 80 77 75 74 74 76 81 86 89 93 96 95 93 91 85 80 79 77 69 61 56 53 51 51 48 39 21 7 6 8 3 354 351 353 355 356 359 5 7 9 11 13 14 17 19 19 25 33 33 30 31 32 31 32 34 36 36 38 41 44 46 48 36 336 321 321 324 331 333 329 326 327 324 320 324 337 348
97 96 93 92 90 88 87 85 83 81 78 75 74 73 69 67 68 69 69 72 78 79 78 79 76 72 72 74 68 56 48 46 46 44 44 40 19 349 340 347 354 349 342 341 343 346 349 352 354 356 358 359 358 1 4 9 20 26 24 23 26 26 25 28 31 32 31 31 32 34 37 39 39 35 23 6 357 354 349 341 338 337 328 316 308 309 312
99 97 94 93 92 90 89 86 82 80 78 77 76 77 75 71 68 65 61 58 58 57 57 57 54 49 47 50 50 44 40 44 44 32 25 26 17 343 330 333 341 345 342 338 336 337 339 341 341 341 342 340 340 343 347 352 2 12 12 15 17 16 15 19 23 25 27 27 25 24 24 25 25 27 26 19 14 15 14 7 2 356 343 324 309 300 298
99 96 94 92 90 88 87 85 82 79 78 77 76 76 76 73 68 65 61 59 58 57 58 58 53 46 40 38 39 37 31 26 28 28 18 2 343 330 327 328 329 333 336 334 328 326 328 330 330 328 327 325 324 323 326 328 334 348 0 5 7 7 8 10 9 8 12 15 14 14 14 13 13 15 17 16 14 12 11 11 13 13 4 352 338 317 304
99 96 91 87 85 82 81 81 79 77 76 75 72 69 69 69 65 57 51 49 50 52 52 51 50 48 41 34 34 35 27 12 1 0 2 347 330 322 321 322 322 322 324 324 321 321 323 322 319 317 316 314 312 311 314 319 324 330 349 2 6 4 0 359 357 356 357 0 4 7 7 7 7 9 11 11 13 13 12 13 15 13 9 7 7 360 344
99 95 90 88 85 81 79 78 77 76 73 69 65 62 62 65 67 61 50 44 44 44 40 36 37 36 32 29 28 25 19 10 360 353 350 348 341 332 327 324 322 321 321 325 329 329 323 316 314 313 311 306 302 303 306 311 315 318 328 341 353 356 353 350 351 351 351 353 358 2 3 5 8 10 11 12 12 13 13 14 14 12 12 10 7 7 16
98 96 95 93 90 85 82 77 73 69 66 63 60 56 50 50 55 55 48 45 44 40 31 26 25 22 17 16 20 18 9 3 4 4 359 358 5 4 357 348 339 334 335 342 346 338 323 312 309 308 305 298 292 287 283 283 293 310 314 307 309 325 339 343 342 343 347 351 354 356 1 7 13 16 21 27 28 25 23 22 21 20 20 19 12 5 5